Time,TemperatureF,DewpointF,PressureIn,WindDirection,WindDirectionDegrees,WindSpeedMPH,WindSpeedGustMPH,Humidity,HourlyPrecipIn,Conditions,Clouds,dailyrainin,SoftwareType,DateUTC
2013-01-24 00:02:00,11.1,2.6,30.40,North,5,12.0,14.0,68,0.00,,,0.00,Wunderground v.1.15,2013-01-24 06:02:00,
2013-01-24 00:08:00,11.0,2.2,30.41,North,5,13.0,14.0,67,0.00,,,0.00,Wunderground v.1.15,2013-01-24 06:08:00,
2013-01-24 00:14:00,10.9,2.1,30.41,North,5,13.0,13.0,67,0.00,,,0.00,Wunderground v.1.15,2013-01-24 06:14:00,
2013-01-24 00:20:00,10.7,1.9,30.41,NNE,15,13.0,15.0,67,0.00,,,0.00,Wunderground v.1.15,2013-01-24 06:20:00,
2013-01-24 00:26:00,10.5,2.0,30.42,North,5,12.0,15.0,68,0.00,,,0.00,Wunderground v.1.15,2013-01-24 06:26:00,
2013-01-24 00:32:00,10.3,2.1,30.42,North,5,11.0,11.0,69,0.00,,,0.00,Wunderground v.1.15,2013-01-24 06:32:00,
2013-01-24 00:38:00,10.2,2.0,30.43,North,11,11.0,12.0,69,0.00,,,0.00,Wunderground v.1.15,2013-01-24 06:38:00,
2013-01-24 00:44:00,10.0,1.9,30.43,North,355,11.0,11.0,69,0.00,,,0.00,Wunderground v.1.15,2013-01-24 06:44:00,
2013-01-24 00:50:00,9.9,1.1,30.44,North,5,11.0,13.0,67,0.00,,,0.00,Wunderground v.1.15,2013-01-24 06:50:00,
2013-01-24 00:56:00,9.6,0.8,30.44,North,360,11.0,13.0,67,0.00,,,0.00,Wunderground v.1.15,2013-01-24 06:56:00,
2013-01-24 01:02:00,9.4,0.6,30.45,NNE,22,10.0,13.0,67,0.00,,,0.00,Wunderground v.1.15,2013-01-24 07:02:00,
2013-01-24 01:08:00,9.3,0.9,30.45,North,360,10.0,13.0,68,0.00,,,0.00,Wunderground v.1.15,2013-01-24 07:08:00,
2013-01-24 01:14:00,9.2,1.1,30.46,North,5,9.0,10.0,69,0.00,,,0.00,Wunderground v.1.15,2013-01-24 07:14:00,
2013-01-24 01:20:00,9.1,1.0,30.46,North,355,9.0,9.0,69,0.00,,,0.00,Wunderground v.1.15,2013-01-24 07:20:00,
2013-01-24 01:26:00,9.1,0.4,30.47,NNE,13,10.0,15.0,67,0.00,,,0.00,Wunderground v.1.15,2013-01-24 07:26:00,
2013-01-24 01:32:00,8.9,0.2,30.47,North,350,10.0,13.0,67,0.00,,,0.00,Wunderground v.1.15,2013-01-24 07:32:00,
2013-01-24 01:38:00,8.7,0.0,30.47,North,5,9.0,13.0,67,0.00,,,0.00,Wunderground v.1.15,2013-01-24 07:38:00,
2013-01-24 01:44:00,8.5,0.1,30.48,North,5,9.0,10.0,68,0.00,,,0.00,Wunderground v.1.15,2013-01-24 07:44:00,
2013-01-24 01:50:00,8.5,0.1,30.49,North,355,8.0,9.0,68,0.00,,,0.00,Wunderground v.1.15,2013-01-24 07:50:00,
2013-01-24 01:56:00,8.6,-0.4,30.49,NNE,12,9.0,13.0,66,0.00,,,0.00,Wunderground v.1.15,2013-01-24 07:56:00,
2013-01-24 02:02:00,8.5,-0.5,30.49,North,5,11.0,13.0,66,0.00,,,0.00,Wunderground v.1.15,2013-01-24 08:02:00,
2013-01-24 02:08:00,8.2,-0.8,30.49,North,360,9.0,13.0,66,0.00,,,0.00,Wunderground v.1.15,2013-01-24 08:08:00,
2013-01-24 02:14:00,8.0,-0.7,30.50,North,5,9.0,10.0,67,0.00,,,0.00,Wunderground v.1.15,2013-01-24 08:14:00,
2013-01-24 02:20:00,8.0,-0.7,30.50,North,5,9.0,10.0,67,0.00,,,0.00,Wunderground v.1.15,2013-01-24 08:20:00,
2013-01-24 02:26:00,8.0,-1.3,30.50,NNE,19,10.0,16.0,65,0.00,,,0.00,Wunderground v.1.15,2013-01-24 08:26:00,
2013-01-24 02:32:00,8.0,-1.0,30.51,North,11,11.0,11.0,66,0.00,,,0.00,Wunderground v.1.15,2013-01-24 08:32:00,
2013-01-24 02:38:00,7.7,-1.3,30.51,North,9,9.0,12.0,66,0.00,,,0.00,Wunderground v.1.15,2013-01-24 08:38:00,
2013-01-24 02:44:00,7.7,-1.3,30.51,North,5,9.0,12.0,66,0.00,,,0.00,Wunderground v.1.15,2013-01-24 08:44:00,
2013-01-24 02:50:00,7.8,-1.5,30.51,North,360,10.0,10.0,65,0.00,,,0.00,Wunderground v.1.15,2013-01-24 08:50:00,
2013-01-24 02:56:00,7.6,-1.4,30.51,North,5,9.0,10.0,66,0.00,,,0.00,Wunderground v.1.15,2013-01-24 08:56:00,
2013-01-24 03:02:00,7.4,-1.3,30.52,North,360,8.0,9.0,67,0.00,,,0.00,Wunderground v.1.15,2013-01-24 09:02:00,
2013-01-24 03:08:00,7.3,-1.4,30.51,North,5,8.0,9.0,67,0.00,,,0.00,Wunderground v.1.15,2013-01-24 09:08:00,
2013-01-24 03:14:00,7.2,-1.5,30.51,NNW,347,9.0,14.0,67,0.00,,,0.00,Wunderground v.1.15,2013-01-24 09:14:00,
2013-01-24 03:20:00,7.2,-1.8,30.52,North,5,9.0,13.0,66,0.00,,,0.00,Wunderground v.1.15,2013-01-24 09:20:00,
2013-01-24 03:26:00,7.0,-2.0,30.52,NNE,19,9.0,13.0,66,0.00,,,0.00,Wunderground v.1.15,2013-01-24 09:26:00,
2013-01-24 03:32:00,6.8,-2.2,30.53,NNE,13,9.0,10.0,66,0.00,,,0.00,Wunderground v.1.15,2013-01-24 09:32:00,
2013-01-24 03:38:00,6.7,-2.3,30.53,North,355,8.0,10.0,66,0.00,,,0.00,Wunderground v.1.15,2013-01-24 09:38:00,
2013-01-24 03:44:00,6.6,-2.4,30.53,North,11,8.0,9.0,66,0.00,,,0.00,Wunderground v.1.15,2013-01-24 09:44:00,
2013-01-24 03:50:00,6.4,-2.2,30.53,NNE,14,7.0,7.0,67,0.00,,,0.00,Wunderground v.1.15,2013-01-24 09:50:00,
2013-01-24 03:56:00,6.2,-2.1,30.54,North,5,6.0,7.0,68,0.00,,,0.00,Wunderground v.1.15,2013-01-24 09:56:00,
2013-01-24 04:02:00,6.2,-2.1,30.54,North,355,6.0,7.0,68,0.00,,,0.00,Wunderground v.1.15,2013-01-24 10:02:00,
2013-01-24 04:08:00,6.2,-2.4,30.55,North,5,8.0,8.0,67,0.00,,,0.00,Wunderground v.1.15,2013-01-24 10:08:00,
2013-01-24 04:14:00,6.0,-2.6,30.55,North,360,8.0,8.0,67,0.00,,,0.00,Wunderground v.1.15,2013-01-24 10:14:00,
2013-01-24 04:20:00,5.9,-2.7,30.55,North,350,7.0,7.0,67,0.00,,,0.00,Wunderground v.1.15,2013-01-24 10:20:00,
2013-01-24 04:26:00,6.0,-2.6,30.55,North,5,7.0,8.0,67,0.00,,,0.00,Wunderground v.1.15,2013-01-24 10:26:00,
2013-01-24 04:32:00,5.9,-2.7,30.55,North,5,8.0,9.0,67,0.00,,,0.00,Wunderground v.1.15,2013-01-24 10:32:00,
2013-01-24 04:38:00,5.9,-2.7,30.56,North,5,8.0,10.0,67,0.00,,,0.00,Wunderground v.1.15,2013-01-24 10:38:00,
2013-01-24 04:44:00,5.8,-2.8,30.56,North,5,7.0,9.0,67,0.00,,,0.00,Wunderground v.1.15,2013-01-24 10:44:00,
2013-01-24 04:50:00,5.7,-2.9,30.56,NNE,13,7.0,9.0,67,0.00,,,0.00,Wunderground v.1.15,2013-01-24 10:50:00,
2013-01-24 04:56:00,5.7,-2.9,30.57,NNE,12,7.0,9.0,67,0.00,,,0.00,Wunderground v.1.15,2013-01-24 10:56:00,
2013-01-24 05:02:00,5.7,-2.9,30.57,NNE,16,8.0,9.0,67,0.00,,,0.00,Wunderground v.1.15,2013-01-24 11:02:00,
2013-01-24 05:08:00,5.6,-3.0,30.57,NNE,13,8.0,9.0,67,0.00,,,0.00,Wunderground v.1.15,2013-01-24 11:08:00,
2013-01-24 05:14:00,5.6,-2.7,30.58,NNE,13,8.0,9.0,68,0.00,,,0.00,Wunderground v.1.15,2013-01-24 11:14:00,
2013-01-24 05:20:00,5.5,-3.1,30.58,North,355,8.0,11.0,67,0.00,,,0.00,Wunderground v.1.15,2013-01-24 11:20:00,
2013-01-24 05:26:00,5.5,-3.1,30.58,NNE,16,8.0,11.0,67,0.00,,,0.00,Wunderground v.1.15,2013-01-24 11:26:00,
2013-01-24 05:32:00,5.4,-3.2,30.59,NNE,13,7.0,8.0,67,0.00,,,0.00,Wunderground v.1.15,2013-01-24 11:32:00,
2013-01-24 05:38:00,5.4,-3.2,30.59,North,5,8.0,8.0,67,0.00,,,0.00,Wunderground v.1.15,2013-01-24 11:38:00,
2013-01-24 05:44:00,5.3,-3.0,30.58,NNE,13,8.0,8.0,68,0.00,,,0.00,Wunderground v.1.15,2013-01-24 11:44:00,
2013-01-24 05:50:00,5.2,-3.1,30.58,NNE,21,8.0,10.0,68,0.00,,,0.00,Wunderground v.1.15,2013-01-24 11:50:00,
2013-01-24 05:56:00,5.2,-3.1,30.59,NNE,18,9.0,12.0,68,0.00,,,0.00,Wunderground v.1.15,2013-01-24 11:56:00,
2013-01-24 06:02:00,5.1,-3.2,30.60,NNE,15,8.0,8.0,68,0.00,,,0.00,Wunderground v.1.15,2013-01-24 12:02:00,
2013-01-24 06:08:00,5.1,-3.2,30.61,North,9,7.0,9.0,68,0.00,,,0.00,Wunderground v.1.15,2013-01-24 12:08:00,
2013-01-24 06:14:00,5.0,-3.0,30.59,NNE,28,8.0,10.0,69,0.00,,,0.00,Wunderground v.1.15,2013-01-24 12:14:00,
2013-01-24 06:20:00,4.9,-3.4,30.60,NNE,12,8.0,10.0,68,0.00,,,0.00,Wunderground v.1.15,2013-01-24 12:20:00,
2013-01-24 06:26:00,4.8,-3.1,30.59,NNE,17,7.0,10.0,69,0.00,,,0.00,Wunderground v.1.15,2013-01-24 12:26:00,
2013-01-24 06:32:00,4.7,-3.2,30.58,North,11,7.0,8.0,69,0.00,,,0.00,Wunderground v.1.15,2013-01-24 12:32:00,
2013-01-24 06:38:00,4.6,-3.3,30.59,North,5,8.0,9.0,69,0.00,,,0.00,Wunderground v.1.15,2013-01-24 12:38:00,
2013-01-24 06:44:00,4.5,-3.1,30.59,North,10,8.0,10.0,70,0.00,,,0.00,Wunderground v.1.15,2013-01-24 12:44:00,
2013-01-24 06:50:00,4.5,-3.4,30.60,North,5,7.0,8.0,69,0.00,,,0.00,Wunderground v.1.15,2013-01-24 12:50:00,
2013-01-24 06:56:00,4.5,-3.1,30.60,North,5,7.0,8.0,70,0.00,,,0.00,Wunderground v.1.15,2013-01-24 12:56:00,
2013-01-24 07:02:00,4.5,-3.1,30.61,North,360,7.0,7.0,70,0.00,,,0.00,Wunderground v.1.15,2013-01-24 13:02:00,
2013-01-24 07:08:00,4.5,-2.8,30.61,NNE,15,6.0,9.0,71,0.00,,,0.00,Wunderground v.1.15,2013-01-24 13:08:00,
2013-01-24 07:14:00,4.5,-2.8,30.61,NNE,22,6.0,8.0,71,0.00,,,0.00,Wunderground v.1.15,2013-01-24 13:14:00,
2013-01-24 07:20:00,4.5,-2.8,30.61,North,9,6.0,6.0,71,0.00,,,0.00,Wunderground v.1.15,2013-01-24 13:20:00,
2013-01-24 07:26:00,4.5,-2.8,30.61,NNE,19,5.0,6.0,71,0.00,,,0.00,Wunderground v.1.15,2013-01-24 13:26:00,
2013-01-24 07:32:00,4.6,-2.7,30.61,NNE,24,5.0,6.0,71,0.00,,,0.00,Wunderground v.1.15,2013-01-24 13:32:00,
2013-01-24 07:38:00,4.8,-2.5,30.61,NNE,19,6.0,6.0,71,0.00,,,0.00,Wunderground v.1.15,2013-01-24 13:38:00,
2013-01-24 07:44:00,4.9,-2.5,30.61,NNE,19,7.0,10.0,71,0.00,,,0.00,Wunderground v.1.15,2013-01-24 13:44:00,
2013-01-24 07:50:00,5.1,-2.3,30.61,NNE,22,8.0,10.0,71,0.00,,,0.00,Wunderground v.1.15,2013-01-24 13:50:00,
2013-01-24 07:56:00,5.3,-2.4,30.62,NNE,22,8.0,11.0,70,0.00,,,0.00,Wunderground v.1.15,2013-01-24 13:56:00,
2013-01-24 08:02:00,5.4,-2.3,30.62,NNE,19,9.0,12.0,70,0.00,,,0.00,Wunderground v.1.15,2013-01-24 14:02:00,
2013-01-24 08:08:00,5.6,-2.1,30.62,NNE,20,9.0,12.0,70,0.00,,,0.00,Wunderground v.1.15,2013-01-24 14:08:00,
2013-01-24 08:14:00,5.9,-2.1,30.63,North,11,9.0,10.0,69,0.00,,,0.00,Wunderground v.1.15,2013-01-24 14:14:00,
2013-01-24 08:20:00,6.2,-1.8,30.63,NNE,26,10.0,10.0,69,0.00,,,0.00,Wunderground v.1.15,2013-01-24 14:20:00,
2013-01-24 08:26:00,6.4,-1.6,30.64,NNE,15,10.0,10.0,69,0.00,,,0.00,Wunderground v.1.15,2013-01-24 14:26:00,
2013-01-24 08:32:00,6.8,-1.2,30.64,NNE,15,9.0,9.0,69,0.00,,,0.00,Wunderground v.1.15,2013-01-24 14:32:00,
2013-01-24 08:38:00,7.1,-1.6,30.64,NNE,31,9.0,12.0,67,0.00,,,0.00,Wunderground v.1.15,2013-01-24 14:38:00,
2013-01-24 08:44:00,7.4,-1.0,30.64,NNE,13,10.0,10.0,68,0.00,,,0.00,Wunderground v.1.15,2013-01-24 14:44:00,
2013-01-24 08:50:00,7.7,-1.0,30.65,NNE,12,8.0,11.0,67,0.00,,,0.00,Wunderground v.1.15,2013-01-24 14:50:00,
2013-01-24 08:56:00,8.0,-0.4,30.65,NNE,14,8.0,9.0,68,0.00,,,0.00,Wunderground v.1.15,2013-01-24 14:56:00,
2013-01-24 09:02:00,7.9,-0.8,30.65,North,11,8.0,9.0,67,0.00,,,0.00,Wunderground v.1.15,2013-01-24 15:02:00,
2013-01-24 09:08:00,8.2,-0.2,30.65,North,5,9.0,9.0,68,0.00,,,0.00,Wunderground v.1.15,2013-01-24 15:08:00,
2013-01-24 09:14:00,8.5,-0.2,30.65,NNE,20,8.0,10.0,67,0.00,,,0.00,Wunderground v.1.15,2013-01-24 15:14:00,
2013-01-24 09:20:00,8.6,-0.1,30.65,NNE,15,9.0,9.0,67,0.00,,,0.00,Wunderground v.1.15,2013-01-24 15:20:00,
2013-01-24 09:26:00,8.9,0.2,30.66,NNE,23,8.0,9.0,67,0.00,,,0.00,Wunderground v.1.15,2013-01-24 15:26:00,
2013-01-24 09:32:00,9.1,0.4,30.66,NNE,30,8.0,8.0,67,0.00,,,0.00,Wunderground v.1.15,2013-01-24 15:32:00,
2013-01-24 09:38:00,9.4,0.6,30.66,NNE,28,6.0,8.0,67,0.00,,,0.00,Wunderground v.1.15,2013-01-24 15:38:00,
2013-01-24 09:44:00,9.6,0.5,30.66,North,5,7.0,8.0,66,0.00,,,0.00,Wunderground v.1.15,2013-01-24 15:44:00,
2013-01-24 09:50:00,9.6,0.5,30.66,NE,46,7.0,7.0,66,0.00,,,0.00,Wunderground v.1.15,2013-01-24 15:50:00,
2013-01-24 09:56:00,9.7,0.6,30.66,NNE,33,7.0,7.0,66,0.00,,,0.00,Wunderground v.1.15,2013-01-24 15:56:00,
2013-01-24 10:02:00,10.3,1.2,30.66,NNE,22,7.0,7.0,66,0.00,,,0.00,Wunderground v.1.15,2013-01-24 16:02:00,
2013-01-24 10:08:00,10.6,1.5,30.65,North,10,7.0,7.0,66,0.00,,,0.00,Wunderground v.1.15,2013-01-24 16:08:00,
2013-01-24 10:14:00,10.8,1.3,30.66,ENE,59,7.0,9.0,65,0.00,,,0.00,Wunderground v.1.15,2013-01-24 16:14:00,
2013-01-24 10:20:00,11.2,2.0,30.65,ENE,59,8.0,10.0,66,0.00,,,0.00,Wunderground v.1.15,2013-01-24 16:20:00,
2013-01-24 10:26:00,11.4,2.2,30.66,NNE,30,7.0,10.0,66,0.00,,,0.00,Wunderground v.1.15,2013-01-24 16:26:00,
2013-01-24 10:32:00,12.1,2.6,30.66,NNE,32,6.0,7.0,65,0.00,,,0.00,Wunderground v.1.15,2013-01-24 16:32:00,
2013-01-24 10:38:00,12.3,2.8,30.66,NNE,26,5.0,7.0,65,0.00,,,0.00,Wunderground v.1.15,2013-01-24 16:38:00,
2013-01-24 10:44:00,12.3,2.8,30.66,NNW,342,5.0,7.0,65,0.00,,,0.00,Wunderground v.1.15,2013-01-24 16:44:00,
2013-01-24 10:50:00,12.6,2.7,30.65,NE,39,5.0,5.0,64,0.00,,,0.00,Wunderground v.1.15,2013-01-24 16:50:00,
2013-01-24 10:56:00,12.9,3.0,30.65,NE,55,4.0,5.0,64,0.00,,,0.00,Wunderground v.1.15,2013-01-24 16:56:00,
2013-01-24 11:02:00,13.2,3.3,30.65,NNE,27,4.0,5.0,64,0.00,,,0.00,Wunderground v.1.15,2013-01-24 17:02:00,
2013-01-24 11:08:00,13.5,3.6,30.65,NNE,33,5.0,7.0,64,0.00,,,0.00,Wunderground v.1.15,2013-01-24 17:08:00,
2013-01-24 11:14:00,13.8,3.5,30.65,NNE,32,6.0,7.0,63,0.00,,,0.00,Wunderground v.1.15,2013-01-24 17:14:00,
2013-01-24 11:20:00,14.0,3.7,30.65,NNE,32,6.0,7.0,63,0.00,,,0.00,Wunderground v.1.15,2013-01-24 17:20:00,
2013-01-24 11:26:00,14.4,3.7,30.65,ENE,61,5.0,6.0,62,0.00,,,0.00,Wunderground v.1.15,2013-01-24 17:26:00,
2013-01-24 11:32:00,14.7,4.0,30.65,NE,56,3.0,4.0,62,0.00,,,0.00,Wunderground v.1.15,2013-01-24 17:32:00,
2013-01-24 11:38:00,14.8,3.4,30.64,ENE,57,3.0,4.0,60,0.00,,,0.00,Wunderground v.1.15,2013-01-24 17:38:00,
2013-01-24 11:44:00,14.9,3.5,30.64,East,97,3.0,3.0,60,0.00,,,0.00,Wunderground v.1.15,2013-01-24 17:44:00,
2013-01-24 11:50:00,15.0,3.6,30.63,East,88,3.0,5.0,60,0.00,,,0.00,Wunderground v.1.15,2013-01-24 17:50:00,
2013-01-24 11:56:00,15.0,3.6,30.63,ENE,65,2.0,3.0,60,0.00,,,0.00,Wunderground v.1.15,2013-01-24 17:56:00,
2013-01-24 12:02:00,15.2,3.8,30.62,ENE,65,3.0,3.0,60,0.00,,,0.00,Wunderground v.1.15,2013-01-24 18:02:00,
2013-01-24 12:08:00,15.8,4.0,30.62,East,86,5.0,8.0,59,0.00,,,0.00,Wunderground v.1.15,2013-01-24 18:08:00,
2013-01-24 12:14:00,16.0,3.8,30.62,NE,37,5.0,6.0,58,0.00,,,0.00,Wunderground v.1.15,2013-01-24 18:14:00,
2013-01-24 12:20:00,16.3,4.1,30.61,ENE,61,5.0,5.0,58,0.00,,,0.00,Wunderground v.1.15,2013-01-24 18:20:00,
2013-01-24 12:26:00,16.5,3.9,30.60,East,101,6.0,6.0,57,0.00,,,0.00,Wunderground v.1.15,2013-01-24 18:26:00,
2013-01-24 12:32:00,16.9,4.7,30.60,ESE,103,5.0,6.0,58,0.00,,,0.00,Wunderground v.1.15,2013-01-24 18:32:00,
2013-01-24 12:38:00,17.7,5.0,30.60,ENE,65,4.0,6.0,57,0.00,,,0.00,Wunderground v.1.15,2013-01-24 18:38:00,
2013-01-24 12:44:00,17.8,4.7,30.60,East,96,6.0,6.0,56,0.00,,,0.00,Wunderground v.1.15,2013-01-24 18:44:00,
2013-01-24 12:50:00,18.1,5.4,30.60,ENE,72,6.0,6.0,57,0.00,,,0.00,Wunderground v.1.15,2013-01-24 18:50:00,
2013-01-24 12:56:00,18.1,5.0,30.60,ENE,59,4.0,6.0,56,0.00,,,0.00,Wunderground v.1.15,2013-01-24 18:56:00,
2013-01-24 13:02:00,18.5,5.8,30.60,ENE,78,4.0,6.0,57,0.00,,,0.00,Wunderground v.1.15,2013-01-24 19:02:00,
2013-01-24 13:08:00,19.0,6.3,30.60,ESE,112,6.0,6.0,57,0.00,,,0.00,Wunderground v.1.15,2013-01-24 19:08:00,
2013-01-24 13:14:00,19.5,6.3,30.60,ENE,67,5.0,6.0,56,0.00,,,0.00,Wunderground v.1.15,2013-01-24 19:14:00,
2013-01-24 13:20:00,19.3,6.1,30.60,ENE,70,3.0,4.0,56,0.00,,,0.00,Wunderground v.1.15,2013-01-24 19:20:00,
2013-01-24 13:26:00,19.5,6.3,30.59,SE,136,3.0,4.0,56,0.00,,,0.00,Wunderground v.1.15,2013-01-24 19:26:00,
2013-01-24 13:32:00,19.9,6.7,30.58,SE,124,3.0,3.0,56,0.00,,,0.00,Wunderground v.1.15,2013-01-24 19:32:00,
2013-01-24 13:38:00,20.4,7.2,30.58,East,85,3.0,3.0,56,0.00,,,0.00,Wunderground v.1.15,2013-01-24 19:38:00,
2013-01-24 13:44:00,20.7,7.1,30.58,East,82,3.0,6.0,55,0.00,,,0.00,Wunderground v.1.15,2013-01-24 19:44:00,
2013-01-24 13:50:00,20.8,6.3,30.58,East,94,3.0,5.0,53,0.00,,,0.00,Wunderground v.1.15,2013-01-24 19:50:00,
2013-01-24 13:56:00,21.0,6.9,30.57,SSE,154,3.0,5.0,54,0.00,,,0.00,Wunderground v.1.15,2013-01-24 19:56:00,
2013-01-24 14:02:00,20.9,5.6,30.57,SE,140,3.0,5.0,51,0.00,,,0.00,Wunderground v.1.15,2013-01-24 20:02:00,
2013-01-24 14:08:00,20.8,5.9,30.57,SSE,165,4.0,5.0,52,0.00,,,0.00,Wunderground v.1.15,2013-01-24 20:08:00,
2013-01-24 14:14:00,21.2,5.9,30.57,East,92,2.0,5.0,51,0.00,,,0.00,Wunderground v.1.15,2013-01-24 20:14:00,
2013-01-24 14:20:00,21.2,5.9,30.57,ESE,113,3.0,5.0,51,0.00,,,0.00,Wunderground v.1.15,2013-01-24 20:20:00,
2013-01-24 14:26:00,21.3,5.5,30.56,ESE,118,3.0,6.0,50,0.00,,,0.00,Wunderground v.1.15,2013-01-24 20:26:00,
2013-01-24 14:32:00,21.2,4.5,30.56,SE,132,4.0,8.0,48,0.00,,,0.00,Wunderground v.1.15,2013-01-24 20:32:00,
2013-01-24 14:38:00,21.5,4.8,30.56,South,179,5.0,8.0,48,0.00,,,0.00,Wunderground v.1.15,2013-01-24 20:38:00,
2013-01-24 14:44:00,21.8,5.1,30.56,South,186,4.0,5.0,48,0.00,,,0.00,Wunderground v.1.15,2013-01-24 20:44:00,
2013-01-24 14:50:00,22.0,5.3,30.56,ESE,105,4.0,4.0,48,0.00,,,0.00,Wunderground v.1.15,2013-01-24 20:50:00,
2013-01-24 14:56:00,21.8,5.1,30.56,SE,140,5.0,5.0,48,0.00,,,0.00,Wunderground v.1.15,2013-01-24 20:56:00,
2013-01-24 15:02:00,21.7,5.0,30.55,SE,126,4.0,8.0,48,0.00,,,0.00,Wunderground v.1.15,2013-01-24 21:02:00,
2013-01-24 15:08:00,21.7,5.0,30.56,SE,134,4.0,8.0,48,0.00,,,0.00,Wunderground v.1.15,2013-01-24 21:08:00,
2013-01-24 15:14:00,21.8,5.5,30.55,SSE,161,4.0,6.0,49,0.00,,,0.00,Wunderground v.1.15,2013-01-24 21:14:00,
2013-01-24 15:20:00,21.8,4.6,30.55,SE,130,4.0,5.0,47,0.00,,,0.00,Wunderground v.1.15,2013-01-24 21:20:00,
2013-01-24 15:26:00,21.8,5.1,30.55,SE,145,4.0,5.0,48,0.00,,,0.00,Wunderground v.1.15,2013-01-24 21:26:00,
2013-01-24 15:32:00,21.8,5.1,30.55,SE,142,3.0,6.0,48,0.00,,,0.00,Wunderground v.1.15,2013-01-24 21:32:00,
2013-01-24 15:38:00,21.7,5.0,30.55,SE,146,4.0,7.0,48,0.00,,,0.00,Wunderground v.1.15,2013-01-24 21:38:00,
2013-01-24 15:44:00,21.6,4.9,30.54,SE,138,4.0,4.0,48,0.00,,,0.00,Wunderground v.1.15,2013-01-24 21:44:00,
2013-01-24 15:50:00,21.8,5.1,30.54,SSE,158,3.0,3.0,48,0.00,,,0.00,Wunderground v.1.15,2013-01-24 21:50:00,
2013-01-24 15:56:00,21.8,5.1,30.53,SE,134,4.0,7.0,48,0.00,,,0.00,Wunderground v.1.15,2013-01-24 21:56:00,
2013-01-24 16:02:00,21.8,5.5,30.53,SE,136,4.0,4.0,49,0.00,,,0.00,Wunderground v.1.15,2013-01-24 22:02:00,
2013-01-24 16:08:00,21.8,5.5,30.53,SE,142,3.0,4.0,49,0.00,,,0.00,Wunderground v.1.15,2013-01-24 22:08:00,
2013-01-24 16:14:00,21.9,4.7,30.52,SE,144,3.0,5.0,47,0.00,,,0.00,Wunderground v.1.15,2013-01-24 22:14:00,
2013-01-24 16:20:00,21.9,4.3,30.52,SSE,153,4.0,5.0,46,0.00,,,0.00,Wunderground v.1.15,2013-01-24 22:20:00,
2013-01-24 16:26:00,21.9,5.2,30.52,ESE,117,4.0,5.0,48,0.00,,,0.00,Wunderground v.1.15,2013-01-24 22:26:00,
2013-01-24 16:32:00,21.8,5.1,30.52,SSE,165,4.0,4.0,48,0.00,,,0.00,Wunderground v.1.15,2013-01-24 22:32:00,
2013-01-24 16:38:00,21.8,5.1,30.52,SE,133,4.0,7.0,48,0.00,,,0.00,Wunderground v.1.15,2013-01-24 22:38:00,
2013-01-24 16:44:00,21.7,5.0,30.53,SE,142,4.0,5.0,48,0.00,,,0.00,Wunderground v.1.15,2013-01-24 22:44:00,
2013-01-24 16:50:00,21.7,5.0,30.53,SE,144,4.0,6.0,48,0.00,,,0.00,Wunderground v.1.15,2013-01-24 22:50:00,
2013-01-24 16:56:00,21.7,5.5,30.53,ESE,123,4.0,5.0,49,0.00,,,0.00,Wunderground v.1.15,2013-01-24 22:56:00,
2013-01-24 17:02:00,21.6,5.4,30.52,SE,140,4.0,4.0,49,0.00,,,0.00,Wunderground v.1.15,2013-01-24 23:02:00,
2013-01-24 17:08:00,21.5,5.7,30.51,SE,137,3.0,4.0,50,0.00,,,0.00,Wunderground v.1.15,2013-01-24 23:08:00,
2013-01-24 17:14:00,21.4,5.6,30.51,SE,130,2.0,3.0,50,0.00,,,0.00,Wunderground v.1.15,2013-01-24 23:14:00,
2013-01-24 17:20:00,21.4,6.0,30.51,SE,129,2.0,2.0,51,0.00,,,0.00,Wunderground v.1.15,2013-01-24 23:20:00,
2013-01-24 17:26:00,21.3,6.0,30.50,East,98,2.0,6.0,51,0.00,,,0.00,Wunderground v.1.15,2013-01-24 23:26:00,
2013-01-24 17:32:00,21.3,5.5,30.50,SE,130,4.0,5.0,50,0.00,,,0.00,Wunderground v.1.15,2013-01-24 23:32:00,
2013-01-24 17:38:00,21.2,5.9,30.49,SE,126,3.0,5.0,51,0.00,,,0.00,Wunderground v.1.15,2013-01-24 23:38:00,
2013-01-24 17:44:00,21.1,6.2,30.49,SE,133,3.0,3.0,52,0.00,,,0.00,Wunderground v.1.15,2013-01-24 23:44:00,
2013-01-24 17:50:00,21.0,6.1,30.49,ESE,114,3.0,7.0,52,0.00,,,0.00,Wunderground v.1.15,2013-01-24 23:50:00,
2013-01-24 17:56:00,21.0,6.1,30.49,ESE,115,4.0,7.0,52,0.00,,,0.00,Wunderground v.1.15,2013-01-24 23:56:00,
2013-01-24 18:02:00,21.1,5.8,30.49,SE,126,4.0,4.0,51,0.00,,,0.00,Wunderground v.1.15,2013-01-25 00:02:00,
2013-01-24 18:08:00,21.1,5.8,30.49,ESE,108,3.0,5.0,51,0.00,,,0.00,Wunderground v.1.15,2013-01-25 00:08:00,
2013-01-24 18:14:00,21.1,5.8,30.49,SE,137,4.0,8.0,51,0.00,,,0.00,Wunderground v.1.15,2013-01-25 00:14:00,
2013-01-24 18:20:00,21.1,5.8,30.48,SE,140,4.0,6.0,51,0.00,,,0.00,Wunderground v.1.15,2013-01-25 00:20:00,
2013-01-24 18:26:00,21.0,5.7,30.48,ESE,115,4.0,6.0,51,0.00,,,0.00,Wunderground v.1.15,2013-01-25 00:26:00,
2013-01-24 18:32:00,21.0,5.7,30.48,ESE,117,3.0,4.0,51,0.00,,,0.00,Wunderground v.1.15,2013-01-25 00:32:00,
2013-01-24 18:38:00,21.0,5.2,30.48,ESE,107,4.0,5.0,50,0.00,,,0.00,Wunderground v.1.15,2013-01-25 00:38:00,
2013-01-24 18:44:00,20.9,5.2,30.48,SE,140,5.0,5.0,50,0.00,,,0.00,Wunderground v.1.15,2013-01-25 00:44:00,
2013-01-24 18:50:00,20.8,5.1,30.47,SE,145,5.0,5.0,50,0.00,,,0.00,Wunderground v.1.15,2013-01-25 00:50:00,
2013-01-24 18:56:00,20.8,5.1,30.47,ESE,115,5.0,8.0,50,0.00,,,0.00,Wunderground v.1.15,2013-01-25 00:56:00,
2013-01-24 19:02:00,20.7,5.4,30.46,SE,133,5.0,9.0,51,0.00,,,0.00,Wunderground v.1.15,2013-01-25 01:02:00,
2013-01-24 19:08:00,20.6,5.3,30.46,ESE,119,4.0,9.0,51,0.00,,,0.00,Wunderground v.1.15,2013-01-25 01:08:00,
2013-01-24 19:14:00,20.6,4.9,30.46,ESE,111,5.0,5.0,50,0.00,,,0.00,Wunderground v.1.15,2013-01-25 01:14:00,
2013-01-24 19:20:00,20.6,5.3,30.46,SE,130,4.0,4.0,51,0.00,,,0.00,Wunderground v.1.15,2013-01-25 01:20:00,
2013-01-24 19:26:00,20.7,5.4,30.46,ESE,123,5.0,9.0,51,0.00,,,0.00,Wunderground v.1.15,2013-01-25 01:26:00,
2013-01-24 19:32:00,20.6,4.9,30.46,SE,144,5.0,5.0,50,0.00,,,0.00,Wunderground v.1.15,2013-01-25 01:32:00,
2013-01-24 19:38:00,20.6,4.9,30.47,ESE,116,4.0,5.0,50,0.00,,,0.00,Wunderground v.1.15,2013-01-25 01:38:00,
2013-01-24 19:44:00,20.6,4.9,30.46,ESE,121,4.0,4.0,50,0.00,,,0.00,Wunderground v.1.15,2013-01-25 01:44:00,
2013-01-24 19:50:00,20.5,4.8,30.45,ESE,114,4.0,7.0,50,0.00,,,0.00,Wunderground v.1.15,2013-01-25 01:50:00,
2013-01-24 19:56:00,20.5,4.3,30.44,SE,146,4.0,7.0,49,0.00,,,0.00,Wunderground v.1.15,2013-01-25 01:56:00,
2013-01-24 20:02:00,20.4,4.7,30.43,SE,136,5.0,5.0,50,0.00,,,0.00,Wunderground v.1.15,2013-01-25 02:02:00,
2013-01-24 20:08:00,20.4,3.8,30.43,SE,134,5.0,6.0,48,0.00,,,0.00,Wunderground v.1.15,2013-01-25 02:08:00,
2013-01-24 20:14:00,20.4,3.8,30.44,SE,141,5.0,5.0,48,0.00,,,0.00,Wunderground v.1.15,2013-01-25 02:14:00,
2013-01-24 20:20:00,20.4,3.8,30.44,SE,130,4.0,5.0,48,0.00,,,0.00,Wunderground v.1.15,2013-01-25 02:20:00,
2013-01-24 20:26:00,20.4,3.8,30.44,SE,134,4.0,5.0,48,0.00,,,0.00,Wunderground v.1.15,2013-01-25 02:26:00,
2013-01-24 20:32:00,20.3,3.7,30.44,SE,132,4.0,4.0,48,0.00,,,0.00,Wunderground v.1.15,2013-01-25 02:32:00,
2013-01-24 20:38:00,20.3,3.7,30.44,SE,137,4.0,5.0,48,0.00,,,0.00,Wunderground v.1.15,2013-01-25 02:38:00,
2013-01-24 20:44:00,20.3,3.7,30.44,SE,133,4.0,5.0,48,0.00,,,0.00,Wunderground v.1.15,2013-01-25 02:44:00,
2013-01-24 20:50:00,20.3,3.7,30.45,SE,141,4.0,4.0,48,0.00,,,0.00,Wunderground v.1.15,2013-01-25 02:50:00,
2013-01-24 20:56:00,20.3,3.7,30.44,SSE,153,5.0,7.0,48,0.00,,,0.00,Wunderground v.1.15,2013-01-25 02:56:00,
2013-01-24 21:02:00,20.3,3.7,30.44,SSE,147,5.0,5.0,48,0.00,,,0.00,Wunderground v.1.15,2013-01-25 03:02:00,
2013-01-24 21:08:00,20.3,3.7,30.44,SE,136,5.0,5.0,48,0.00,,,0.00,Wunderground v.1.15,2013-01-25 03:08:00,
2013-01-24 21:14:00,20.3,4.2,30.44,SE,142,5.0,6.0,49,0.00,,,0.00,Wunderground v.1.15,2013-01-25 03:14:00,
2013-01-24 21:20:00,20.2,4.5,30.44,ESE,117,4.0,7.0,50,0.00,,,0.00,Wunderground v.1.15,2013-01-25 03:20:00,
2013-01-24 21:26:00,20.1,4.4,30.43,ESE,107,4.0,7.0,50,0.00,,,0.00,Wunderground v.1.15,2013-01-25 03:26:00,
2013-01-24 21:32:00,20.0,4.7,30.43,ESE,120,4.0,4.0,51,0.00,,,0.00,Wunderground v.1.15,2013-01-25 03:32:00,
2013-01-24 21:38:00,20.0,5.2,30.44,ESE,119,4.0,8.0,52,0.00,,,0.00,Wunderground v.1.15,2013-01-25 03:38:00,
2013-01-24 21:44:00,19.9,5.5,30.43,SE,124,4.0,5.0,53,0.00,,,0.00,Wunderground v.1.15,2013-01-25 03:44:00,
2013-01-24 21:50:00,19.8,5.4,30.42,East,88,6.0,6.0,53,0.00,,,0.00,Wunderground v.1.15,2013-01-25 03:50:00,
2013-01-24 21:56:00,19.8,5.4,30.42,SE,130,6.0,9.0,53,0.00,,,0.00,Wunderground v.1.15,2013-01-25 03:56:00,
2013-01-24 22:02:00,19.8,5.4,30.41,SE,142,6.0,11.0,53,0.00,,,0.00,Wunderground v.1.15,2013-01-25 04:02:00,
2013-01-24 22:08:00,19.7,5.7,30.39,East,96,6.0,11.0,54,0.00,,,0.00,Wunderground v.1.15,2013-01-25 04:08:00,
2013-01-24 22:14:00,19.7,5.7,30.40,ESE,118,7.0,7.0,54,0.00,,,0.00,Wunderground v.1.15,2013-01-25 04:14:00,
2013-01-24 22:20:00,19.6,5.6,30.39,ESE,112,7.0,8.0,54,0.00,,,0.00,Wunderground v.1.15,2013-01-25 04:20:00,
2013-01-24 22:26:00,19.6,5.6,30.38,ESE,115,7.0,8.0,54,0.00,,,0.00,Wunderground v.1.15,2013-01-25 04:26:00,
2013-01-24 22:32:00,19.6,5.6,30.39,ESE,119,6.0,6.0,54,0.00,,,0.00,Wunderground v.1.15,2013-01-25 04:32:00,
2013-01-24 22:38:00,19.6,5.6,30.38,ESE,111,5.0,6.0,54,0.00,,,0.00,Wunderground v.1.15,2013-01-25 04:38:00,
2013-01-24 22:44:00,19.6,5.6,30.37,SE,146,5.0,8.0,54,0.00,,,0.00,Wunderground v.1.15,2013-01-25 04:44:00,
2013-01-24 22:50:00,19.6,5.6,30.37,ESE,120,5.0,8.0,54,0.00,,,0.00,Wunderground v.1.15,2013-01-25 04:50:00,
2013-01-24 22:56:00,19.7,5.7,30.38,SSE,159,6.0,10.0,54,0.00,,,0.00,Wunderground v.1.15,2013-01-25 04:56:00,
2013-01-24 23:02:00,19.8,5.8,30.39,SE,130,5.0,9.0,54,0.00,,,0.00,Wunderground v.1.15,2013-01-25 05:02:00,
2013-01-24 23:06:00,19.9,5.9,30.39,SE,141,5.0,9.0,54,0.00,,,0.00,Wunderground v.1.15,2013-01-25 05:06:00,
2013-01-24 23:08:00,19.9,5.9,30.39,SSE,147,5.0,9.0,54,0.00,,,0.00,Wunderground v.1.15,2013-01-25 05:08:00,
2013-01-24 23:14:00,19.9,5.9,30.39,SSE,148,5.0,9.0,54,0.00,,,0.00,Wunderground v.1.15,2013-01-25 05:14:00,
2013-01-24 23:20:00,19.9,5.9,30.40,SSE,148,5.0,9.0,54,0.00,,,0.00,Wunderground v.1.15,2013-01-25 05:20:00,
2013-01-24 23:26:00,19.9,5.9,30.41,SSE,147,4.0,4.0,54,0.00,,,0.00,Wunderground v.1.15,2013-01-25 05:26:00,
2013-01-24 23:32:00,19.9,6.3,30.39,SSE,156,4.0,4.0,55,0.00,,,0.00,Wunderground v.1.15,2013-01-25 05:32:00,
2013-01-24 23:38:00,20.0,6.4,30.39,SSE,155,4.0,7.0,55,0.00,,,0.00,Wunderground v.1.15,2013-01-25 05:38:00,
2013-01-24 23:44:00,20.0,6.4,30.39,SSE,153,4.0,4.0,55,0.00,,,0.00,Wunderground v.1.15,2013-01-25 05:44:00,
2013-01-24 23:50:00,20.1,6.1,30.38,SSE,149,4.0,5.0,54,0.00,,,0.00,Wunderground v.1.15,2013-01-25 05:50:00,
2013-01-24 23:56:00,20.2,5.8,30.38,SE,127,5.0,8.0,53,0.00,,,0.00,Wunderground v.1.15,2013-01-25 05:56:00,